sat.trackr.live / text

‹ back to catalog

STARLINK-5195

NORAD 54051 · 2022-136A

PAYLOAD ACTIVE UNKNOWN

§ Identity

Operator
Country
US
Launch date
2022-10-20
Launch site
AFETR
Launch vehicle
Mass (kg)
RCS (m²)

Purposes: comms

External: N2YO · Heavens-Above · Gunter

§ Orbital elements

Epoch: 2026-09-20T22:00:03.000096Z

Period
94.47 min
Inclination
53.1612°
Eccentricity
0.0000985
Mean motion
15.24372412 rev/d
Perigee alt
492.0 km
Apogee alt
493.3 km
Semi-major
6,870.8 km
B*
5.5246e-4
RAAN
186.8680°
Arg perigee
73.7113°
Mean anomaly
256.2497°
Rev number
575

§ Raw data

STARLINK-51951 54051U 22136A   26263.91670139  .00013393  00000+0  55246-3 0  99972 54051  53.1612 186.8680 0000985  73.7113 256.2497 15.24372412  5759

JSON: /api/v1/satellites/54051 · /tle

For live sub-satellite position, see the globe view (requires WebGL).

§ Visibility from observer

Set your observer location to see the next 7 days of passes ≥ 10°. The values pass through the URL so the page stays shareable.

No JS? Fill the form by hand. The geolocation button needs JavaScript.